{"data":{"norad_id":49285,"epoch":"2026-09-19T22:46:51.774240Z","epoch_age_seconds":73261,"freshness":"FRESH","line1":"1 49285U 21090G   26262.94921035  .00000081  00000+0  16706-3 0  9992","line2":"2 49285  87.9143 255.5298 0002026  93.6128 266.5237 13.20770117243040","mean_motion":13.20770117,"eccentricity":0.0002026,"inclination_deg":87.9143,"raan_deg":255.5298,"arg_perigee_deg":93.6128,"mean_anomaly_deg":266.5237,"bstar":0.00016706,"rev_number":24304,"period_min":109.02730016869,"perigee_km":1180.2482051079,"apogee_km":1183.3114834132,"semimajor_km":7559.9168442606,"source":"CELESTRAK","updated_at":"2026-09-20T09:00:44.669502Z"}}